User: anonymous
Location: Oshawa
(43.9000°N, 78.8670°W)
Time: 07:34:59
(UTC-04:00)
Language:

Cosmos 1408 Rocket - Orbit

View from above orbital plane
View from above orbital plane
View from above satellite
View from above satellite

Ground track
Ground track

The orbit data is extracted from the following two-line orbital elements,

1 13553U 82092B   14244.23422166  .00000235  00000-0  25455-4 0  9916
2 13553 082.5671 104.1020 0022314 170.7470 325.1105 14.83574541725771
Epoch (UTC): 01 September 2014 05:37:16
Eccentricity: 0.0022314
inclination: 82.5671°
perigee height: 602 km
apogee height: 633 km
right ascension of ascending node: 104.1020°
argument of perigee: 170.7470°
revolutions per day: 14.83574541
mean anomaly at epoch: 325.1105°
orbit number at epoch: 72577

The dashed part of the orbit path shows where the satellite is in the earth's shadow,  

DLR